When you browse on this site, cookies collect data to enhance your experience and personalize the content and advertising you see.
Visit our Privacy Policy to learn more. By continuing to use the site, you agree to this use of cookies and data.
  • în România
  • Lista ţărilor
  • Pe 7 zile
  • Temperatura apei
  • Hartă satelitară
  • Meteo pe hartă
  • Widget-uri
  • user-avatar
    Intrare

    Meteo pe oră la Shahabad

    Astăzi, 19 Iulie, Vineri

    Timp Temperatura Precipitaţii Vânt Presiune Umiditate
    00:00 +30°C° 0.4 mm 2 m/s 718 mmHg 69%
    01:00 +30°C° 0.4 mm 2 m/s 717 mmHg 70%
    02:00 +30°C° 0.4 mm 2 m/s 717 mmHg 72%
    03:00 +29°C° 0.7 mm 2 m/s 717 mmHg 74%
    04:00 +29°C° 0.7 mm 2 m/s 717 mmHg 75%
    05:00 +28°C° 0 mm 3 m/s 717 mmHg 77%
    06:00 +29°C° 1.7 mm 4 m/s 718 mmHg 75%
    07:00 +29°C° 1.7 mm 4 m/s 718 mmHg 73%
    08:00 +30°C° 1.7 mm 4 m/s 718 mmHg 70%
    09:00 +32°C° 0.9 mm 4 m/s 718 mmHg 65%
    10:00 +33°C° 0.9 mm 3 m/s 718 mmHg 60%
    11:00 +34°C° 0 mm 3 m/s 719 mmHg 58%
    12:00 +34°C° 0.4 mm 3 m/s 718 mmHg 56%
    13:00 +35°C° 0.4 mm 3 m/s 718 mmHg 54%
    14:00 +35°C° 0.4 mm 3 m/s 717 mmHg 52%
    15:00 +34°C° 0.9 mm 3 m/s 717 mmHg 60%
    16:00 +32°C° 0.9 mm 4 m/s 716 mmHg 68%
    17:00 +29°C° 0 mm 3 m/s 716 mmHg 79%
    18:00 +29°C° 0.3 mm 2 m/s 717 mmHg 78%
    19:00 +29°C° 0.3 mm 1 m/s 717 mmHg 77%
    20:00 +27°C° 0.3 mm 0 m/s 717 mmHg 75%
    21:00 +29°C° 0.5 mm 1 m/s 718 mmHg 76%
    22:00 +29°C° 0.5 mm 2 m/s 718 mmHg 77%
    23:00 +28°C° 0.5 mm 3 m/s 718 mmHg 78%

    Mâine, 20 Iulie, Sâmbătă

    Timp Temperatura Precipitaţii Vânt Presiune Umiditate
    00:00 +28°C° 0.5 mm 3 m/s 718 mmHg 79%
    01:00 +28°C° 0.5 mm 3 m/s 717 mmHg 80%
    02:00 +28°C° 0.5 mm 3 m/s 717 mmHg 81%
    03:00 +27°C° 0.3 mm 3 m/s 717 mmHg 82%
    04:00 +27°C° 0.3 mm 3 m/s 717 mmHg 82%
    05:00 +27°C° 0.3 mm 3 m/s 717 mmHg 83%
    06:00 +27°C° 0.1 mm 4 m/s 717 mmHg 82%
    07:00 +28°C° 0.1 mm 4 m/s 718 mmHg 81%
    08:00 +28°C° 0.1 mm 4 m/s 718 mmHg 80%
    09:00 +29°C° 0.2 mm 4 m/s 718 mmHg 74%
    10:00 +31°C° 0.2 mm 3 m/s 718 mmHg 69%
    11:00 +33°C° 0.2 mm 3 m/s 718 mmHg 63%
    12:00 +33°C° 0.1 mm 3 m/s 717 mmHg 61%
    13:00 +34°C° 0.1 mm 3 m/s 717 mmHg 59%
    14:00 +35°C° 0.1 mm 3 m/s 716 mmHg 57%
    15:00 +34°C° 0.9 mm 4 m/s 716 mmHg 58%
    16:00 +34°C° 0.9 mm 4 m/s 716 mmHg 60%
    17:00 +33°C° 0.9 mm 4 m/s 716 mmHg 62%
    18:00 +33°C° 1.5 mm 3 m/s 716 mmHg 66%
    19:00 +31°C° 1.5 mm 3 m/s 717 mmHg 70%
    20:00 +30°C° 1.5 mm 3 m/s 717 mmHg 74%
    21:00 +30°C° 0.6 mm 3 m/s 717 mmHg 75%
    22:00 +30°C° 0.6 mm 3 m/s 718 mmHg 76%
    23:00 +29°C° 0.6 mm 3 m/s 718 mmHg 78%

    Poimâine, 21 Iulie, Duminică

    Timp Temperatura Precipitaţii Vânt Presiune Umiditate
    00:00 +29°C° 0.2 mm 3 m/s 717 mmHg 79%
    01:00 +29°C° 0.2 mm 4 m/s 717 mmHg 81%
    02:00 +28°C° 0.2 mm 5 m/s 717 mmHg 82%
    03:00 +28°C° 0 mm 4 m/s 717 mmHg 83%
    04:00 +27°C° 0 mm 4 m/s 717 mmHg 84%
    05:00 +27°C° 0 mm 4 m/s 717 mmHg 85%
    06:00 +28°C° 0 mm 4 m/s 717 mmHg 83%
    07:00 +28°C° 0 mm 4 m/s 718 mmHg 80%
    08:00 +29°C° 0 mm 4 m/s 718 mmHg 77%
    09:00 +30°C° 0 mm 4 m/s 718 mmHg 73%
    10:00 +32°C° 0 mm 4 m/s 718 mmHg 70%
    11:00 +33°C° 0 mm 4 m/s 718 mmHg 66%
    12:00 +34°C° 0.1 mm 4 m/s 718 mmHg 63%
    13:00 +34°C° 0.1 mm 4 m/s 717 mmHg 60%
    14:00 +35°C° 0.1 mm 4 m/s 716 mmHg 57%
    15:00 +35°C° 0.4 mm 3 m/s 716 mmHg 57%
    16:00 +35°C° 0.4 mm 3 m/s 716 mmHg 57%
    17:00 +35°C° 0.4 mm 3 m/s 715 mmHg 56%
    18:00 +34°C° 0.1 mm 3 m/s 716 mmHg 61%
    19:00 +33°C° 0.1 mm 3 m/s 717 mmHg 65%
    20:00 +33°C° 0.1 mm 3 m/s 717 mmHg 69%
    21:00 +31°C° 0.2 mm 3 m/s 717 mmHg 70%
    22:00 +30°C° 0.2 mm 4 m/s 718 mmHg 72%
    23:00 +30°C° 0.2 mm 5 m/s 718 mmHg 73%

    22 Iulie, Luni

    Timp Temperatura Precipitaţii Vânt Presiune Umiditate
    00:00 +29°C° 0 mm 5 m/s 717 mmHg 75%
    01:00 +29°C° 0 mm 5 m/s 717 mmHg 78%
    02:00 +28°C° 0 mm 5 m/s 717 mmHg 80%
    03:00 +28°C° 0 mm 5 m/s 717 mmHg 81%
    04:00 +28°C° 0 mm 4 m/s 716 mmHg 82%
    05:00 +27°C° 0 mm 4 m/s 716 mmHg 83%
    06:00 +28°C° 0 mm 4 m/s 717 mmHg 81%
    07:00 +28°C° 0 mm 5 m/s 717 mmHg 79%
    08:00 +29°C° 0 mm 5 m/s 718 mmHg 78%
    09:00 +30°C° 0.3 mm 5 m/s 718 mmHg 74%
    10:00 +32°C° 0.3 mm 4 m/s 718 mmHg 70%
    11:00 +33°C° 0.3 mm 4 m/s 718 mmHg 66%
    12:00 +33°C° 0.7 mm 4 m/s 717 mmHg 63%
    13:00 +34°C° 0.7 mm 4 m/s 716 mmHg 60%
    14:00 +35°C° 0.7 mm 3 m/s 716 mmHg 57%
    15:00 +35°C° 0 mm 3 m/s 715 mmHg 57%
    16:00 +35°C° 0 mm 3 m/s 715 mmHg 57%
    17:00 +35°C° 0 mm 3 m/s 715 mmHg 57%
    18:00 +34°C° 0 mm 2 m/s 715 mmHg 61%
    19:00 +33°C° 0 mm 1 m/s 716 mmHg 65%
    20:00 +32°C° 0 mm 1 m/s 716 mmHg 69%
    21:00 +31°C° 1.6 mm 1 m/s 716 mmHg 71%
    22:00 +31°C° 1.6 mm 2 m/s 716 mmHg 73%
    23:00 +30°C° 1.6 mm 2 m/s 716 mmHg 75%

    23 Iulie, Marţi

    Timp Temperatura Precipitaţii Vânt Presiune Umiditate
    00:00 +30°C° 1.2 mm 3 m/s 716 mmHg 77%
    01:00 +29°C° 1.2 mm 3 m/s 716 mmHg 78%
    02:00 +29°C° 1.2 mm 3 m/s 715 mmHg 80%
    03:00 +29°C° 0.2 mm 4 m/s 715 mmHg 81%
    04:00 +28°C° 0.2 mm 4 m/s 715 mmHg 83%
    05:00 +28°C° 0.2 mm 4 m/s 715 mmHg 85%
    06:00 +29°C° 0.3 mm 4 m/s 716 mmHg 82%
    07:00 +29°C° 0.3 mm 4 m/s 716 mmHg 79%
    08:00 +30°C° 0.3 mm 4 m/s 717 mmHg 77%
    09:00 +31°C° 0.7 mm 3 m/s 717 mmHg 71%
    10:00 +33°C° 0.7 mm 3 m/s 717 mmHg 66%
    11:00 +34°C° 0.7 mm 2 m/s 717 mmHg 61%
    12:00 +34°C° 0.3 mm 2 m/s 716 mmHg 58%
    13:00 +34°C° 0.3 mm 1 m/s 715 mmHg 56%
    14:00 +35°C° 0.3 mm 1 m/s 715 mmHg 53%
    15:00 +35°C° 0.1 mm 1 m/s 715 mmHg 53%
    16:00 +36°C° 0.1 mm 2 m/s 715 mmHg 54%
    17:00 +36°C° 0.1 mm 2 m/s 714 mmHg 54%
    18:00 +34°C° 0.5 mm 2 m/s 715 mmHg 60%
    19:00 +32°C° 0.5 mm 2 m/s 715 mmHg 66%
    20:00 +31°C° 0.5 mm 2 m/s 716 mmHg 72%
    21:00 +31°C° 0.5 mm 2 m/s 716 mmHg 73%
    22:00 +31°C° 0.5 mm 2 m/s 716 mmHg 74%
    23:00 +30°C° 0.5 mm 1 m/s 716 mmHg 74%

    24 Iulie, Miercuri

    Timp Temperatura Precipitaţii Vânt Presiune Umiditate
    00:00 +30°C° 0.2 mm 2 m/s 716 mmHg 75%
    01:00 +30°C° 0.2 mm 2 m/s 716 mmHg 77%
    02:00 +29°C° 0.2 mm 2 m/s 715 mmHg 78%
    03:00 +29°C° 0 mm 1 m/s 715 mmHg 79%
    04:00 +29°C° 0 mm 1 m/s 715 mmHg 81%
    05:00 +29°C° 0 mm 1 m/s 715 mmHg 82%
    06:00 +29°C° 0.4 mm 1 m/s 716 mmHg 77%
    07:00 +30°C° 0.4 mm 1 m/s 716 mmHg 73%
    08:00 +31°C° 0.4 mm 1 m/s 717 mmHg 68%
    09:00 +32°C° 0.7 mm 1 m/s 717 mmHg 62%
    10:00 +31°C° 0.7 mm 0 m/s 717 mmHg 57%
    11:00 +32°C° 0.7 mm 0 m/s 717 mmHg 51%
    12:00 +34°C° 0.1 mm 1 m/s 716 mmHg 50%
    13:00 +35°C° 0.1 mm 1 m/s 716 mmHg 48%
    14:00 +35°C° 0.1 mm 1 m/s 715 mmHg 46%
    15:00 +35°C° 0 mm 1 m/s 715 mmHg 47%
    16:00 +35°C° 0 mm 1 m/s 715 mmHg 48%
    17:00 +35°C° 0 mm 1 m/s 715 mmHg 48%
    18:00 +34°C° 0.1 mm 1 m/s 715 mmHg 53%
    19:00 +33°C° 0.1 mm 1 m/s 716 mmHg 58%
    20:00 +32°C° 0.1 mm 1 m/s 716 mmHg 63%
    21:00 +32°C° 0.8 mm 2 m/s 717 mmHg 66%
    22:00 +31°C° 0.8 mm 3 m/s 717 mmHg 69%
    23:00 +30°C° 0.8 mm 4 m/s 717 mmHg 72%
    Arată mai mult